Address 0xe4e98e007e5a4a5a73a4ba2254efeaae131cbc04 5

 
Txn Hash Method
Block
From
To
Value [Txn Fee]
0x146025e29e47f59a16b41f638fa84d42201f2d8a6c07adce0caa245a3ac49fc5Migrate109189442021-09-14 22:35:0214 days 36 mins ago0xe4e98e007e5a4a5a73a4ba2254efeaae131cbc04OUT 0x5c34daa1c1f72a86c4267d89d5ea6a3cba52cf210 BNB0.00144156
0xaad0f5905d65f9e289efaaf590859ffed9a37035489c699021178872bd17081eApprove109189372021-09-14 22:34:4114 days 36 mins ago0xe4e98e007e5a4a5a73a4ba2254efeaae131cbc04OUT MoonWilly: MNWL Token0 BNB0.000222745
0xf4b478aea121a58ce1419b27e64cc7e479ad4f7ce990376eef1a89c99556463fDeposit109018852021-09-14 8:19:2014 days 14 hrs ago0xe4e98e007e5a4a5a73a4ba2254efeaae131cbc04OUT 0x60a3bd6d8d42546a57aea8b8456f2330619b5acc0 BNB0.00055755
0x9e81fecadfea92d0c9b53fe39fb37136a1094e67e04bb73748c4cdc0f3c33579Swap Exact Token...109018762021-09-14 8:18:5314 days 14 hrs ago0xe4e98e007e5a4a5a73a4ba2254efeaae131cbc04OUT PancakeSwap: Router v20 BNB0.000489095
0x272fe11aa66a36c3402efd0d25ea288f67f7cf357935e9cda466a2beff984940Remove Liquidity...109018582021-09-14 8:17:5914 days 14 hrs ago0xe4e98e007e5a4a5a73a4ba2254efeaae131cbc04OUT PancakeSwap: Router v20 BNB0.00096697
0xdb84eef89162fab76c9e80b754778009a9a400eed841424af3b89c076c21eb12Withdraw109018352021-09-14 8:16:5014 days 14 hrs ago0xe4e98e007e5a4a5a73a4ba2254efeaae131cbc04OUT 0x18153f9103cb4b6e1c2c89a0f87ba10baf9927230 BNB0.00134726
0x522531469155a77be34e918bc866d856f737b0a083b59baf5e69fb20b00c8e69Deposit107039912021-09-07 9:54:0821 days 13 hrs ago0xe4e98e007e5a4a5a73a4ba2254efeaae131cbc04OUT 0x60a3bd6d8d42546a57aea8b8456f2330619b5acc0 BNB0.00055761
0x3a5a86ba2e4dc192cee5f6cf846ae394cd5a8b3173bb7a86f99c75dc4d43b785Swap Exact Token...107039792021-09-07 9:53:3221 days 13 hrs ago0xe4e98e007e5a4a5a73a4ba2254efeaae131cbc04OUT PancakeSwap: Router v20 BNB0.000489095
0x6e43a244703fdae888459fb3f6fd763f0b5540290df2ece3ffb347e04b2e9defRemove Liquidity...107039592021-09-07 9:52:3221 days 13 hrs ago0xe4e98e007e5a4a5a73a4ba2254efeaae131cbc04OUT PancakeSwap: Router v20 BNB0.00096691
0x2bea7af9d5513e1d50814c12d52bfc671c5e90b1d58c0e2537f68dceddb5dbd8Withdraw107039252021-09-07 9:50:5021 days 13 hrs ago0xe4e98e007e5a4a5a73a4ba2254efeaae131cbc04OUT 0x18153f9103cb4b6e1c2c89a0f87ba10baf9927230 BNB0.00134732
0xa85df5d1564f69b6319e55bb34e7e76bab514de64d3f34410a0067956312c10aSwap Exact Token...107039092021-09-07 9:50:0021 days 13 hrs ago0xe4e98e007e5a4a5a73a4ba2254efeaae131cbc04OUT PancakeSwap: Router v20 BNB0.000821095
0x0e7e6070efad31f4cedb013f2dd655011216dc46902ff76fed692cbead65071aSwap Tokens For ...107038852021-09-07 9:48:4821 days 13 hrs ago0xe4e98e007e5a4a5a73a4ba2254efeaae131cbc04OUT PancakeSwap: Router v20 BNB0.00134908
0xfd539abce62198ae2944081430e84de0aff3914dfad3b00a7ec9a1a67ba5351aLeave Staking107037062021-09-07 9:39:5021 days 13 hrs ago0xe4e98e007e5a4a5a73a4ba2254efeaae131cbc04OUT PancakeSwap: Main Staking Contract0 BNB0.000572525
0x080714c9828b4dff991285524f8e9f7efc057c5653ee78c84ece3f742657b609Deposit104946282021-08-31 1:43:2728 days 21 hrs ago0xe4e98e007e5a4a5a73a4ba2254efeaae131cbc04OUT 0x60a3bd6d8d42546a57aea8b8456f2330619b5acc0 BNB0.00055755
0x136341d217ac31464cc31eddf71c460546308e083a495a6efa3eba5790ecd162Swap Exact Token...104946182021-08-31 1:42:5728 days 21 hrs ago0xe4e98e007e5a4a5a73a4ba2254efeaae131cbc04OUT PancakeSwap: Router v20 BNB0.000489095
0x82dcd9cc74106d82b4358d4b9f27f3efdeddc365dabd495e7d716d228d9a523cRemove Liquidity...104945902021-08-31 1:41:3328 days 21 hrs ago0xe4e98e007e5a4a5a73a4ba2254efeaae131cbc04OUT PancakeSwap: Router v20 BNB0.00104209
0x04653347ef33feb7de27c65498f30d9f87d7a35be52c8509f23a91b6e0da48fdWithdraw104945192021-08-31 1:38:0028 days 21 hrs ago0xe4e98e007e5a4a5a73a4ba2254efeaae131cbc04OUT 0x18153f9103cb4b6e1c2c89a0f87ba10baf9927230 BNB0.00134732
0x9d01f4a74dd913cf657bc8d2e702cc18855bb37c3ac96a35dd2b881c899c44f4Transfer103626092021-08-26 9:57:0133 days 13 hrs ago0xe4e98e007e5a4a5a73a4ba2254efeaae131cbc04OUT BUSD-T Stablecoin0 BNB0.000180575
0x1b83c5736143f992764fbbb8c5ae8b04a00a76cbf78bf793a0bd96f6e3fb2c79Deposit103618162021-08-26 9:17:2233 days 13 hrs ago0xe4e98e007e5a4a5a73a4ba2254efeaae131cbc04OUT 0x60a3bd6d8d42546a57aea8b8456f2330619b5acc0 BNB0.00055755
0xd699d499f58ce1f5c8059ba81fd34e49d018c9268fd5799058dc74c95905e69fDeposit103617992021-08-26 9:16:3133 days 13 hrs ago0xe4e98e007e5a4a5a73a4ba2254efeaae131cbc04OUT 0x18153f9103cb4b6e1c2c89a0f87ba10baf9927230 BNB0.00114314
0x78078a688fc50da701d2674f4b099bc8b2e3b50b2a6431dc114546f36c1c0f60Deposit101637522021-08-19 11:12:5540 days 11 hrs ago0xe4e98e007e5a4a5a73a4ba2254efeaae131cbc04OUT 0x60a3bd6d8d42546a57aea8b8456f2330619b5acc0 BNB0.00055755
0x8dc2db867ee276a865ccfcf5cdcca37d3cdc1cff0ca9f576ea75003fef2a4d48Deposit101637422021-08-19 11:12:2240 days 11 hrs ago0xe4e98e007e5a4a5a73a4ba2254efeaae131cbc04OUT 0x18153f9103cb4b6e1c2c89a0f87ba10baf9927230 BNB0.00114314
0x97d1a83d73e2f6584e275575f4798ea5ccd48a9ea46f373980ecc712ff8f9dd7Swap Exact Token...101637252021-08-19 11:11:2540 days 11 hrs ago0xe4e98e007e5a4a5a73a4ba2254efeaae131cbc04OUT PancakeSwap: Router v20 BNB0.00061281
0x73657c2463fe5a36d87726490ddddfe815a84205a0ace103a6ad511854f4b0bbSwap Exact Token...101637172021-08-19 11:10:5540 days 12 hrs ago0xe4e98e007e5a4a5a73a4ba2254efeaae131cbc04OUT PancakeSwap: Router v20 BNB0.000956395
0x8cc94eac1b08b82e5dfc23f3cc42d3b76eb32af6c10ec744fd1f5c46cc871221Swap Exact Token...101637042021-08-19 11:10:0840 days 12 hrs ago0xe4e98e007e5a4a5a73a4ba2254efeaae131cbc04OUT PancakeSwap: Router v20 BNB0.00043028
[ Download CSV Export 
Latest 5 internal transactions
Parent Txn Hash Block From To Value
0x97d1a83d73e2f6584e275575f4798ea5ccd48a9ea46f373980ecc712ff8f9dd7101637252021-08-19 11:11:2540 days 11 hrs ago PancakeSwap: Router v20xe4e98e007e5a4a5a73a4ba2254efeaae131cbc040.026185234823651492 BNB
0xb40d34ec31f215335b130dcd3686c104bb8533f0bdf6d813a39038ceed3159e793366422021-07-21 0:42:2569 days 22 hrs ago PancakeSwap: Router v20xe4e98e007e5a4a5a73a4ba2254efeaae131cbc040.030749629196915184 BNB
0x0f881904f6ce0e2e26e140f8b8bcc3e2a15aa25d28eec4285dcc570a9be663a193365182021-07-21 0:36:1369 days 22 hrs ago PancakeSwap: Router v20xe4e98e007e5a4a5a73a4ba2254efeaae131cbc040.001828873153327764 BNB
0x6644039098c03264ad83ecb16b7214c6c5cd49ea7098543c23a09c23480271dd74997472021-05-17 22:33:42134 days 37 mins ago PancakeSwap: Router v20xe4e98e007e5a4a5a73a4ba2254efeaae131cbc040.058223312309888101 BNB
0x5ec25a4337b4ad052656bdd6b0ad88dd80a5a71b9223b0a55865ef7eeae3011773856292021-05-13 21:56:41138 days 1 hr ago PancakeSwap: Router v20xe4e98e007e5a4a5a73a4ba2254efeaae131cbc040.022845001527674252 BNB
[ Download CSV Export 
Loading

Contract Name:
0 BNB

Compiler Version
0

Optimization Enabled:
0 BNB

Other Settings:
-NA-
Block Transaction Gas Used Reward
Age Block Fee Address BC Fee Address Voting Power Jailed Incoming
Block Uncle Number Difficulty Gas Used Reward
Loading
Loading
Make sure to use the "Vote Down" button for any spammy posts, and the "Vote Up" for interesting conversations.